Home   Weather   Kranj   Past weeks

Flag for Slovenia Past Weather in Kranj, Slovenia — Yesterday and Last 2 Weeks

Now
54 °F

Sprinkles. Partly sunny.


Feels Like: 54 °F
Forecast: 55 / 59 °F
Wind: 2 mph from North

Location: Ljubljana Airport / Brnik

Current Time: Apr 26, 2017 at 2:03:39 pm

Latest Report: Apr 26, 2017 at 1:00 pm


Visibility: N/A

Pressure: 29.83 "Hg

Humidity: 82%

Dew Point: 48 °F

Location of KranjLocation

Past Weather in Kranj — Graph

°F

Kranj Temperature Yesterday

Maximum temperature yesterday: 61 °F (at 1:30 pm)
Minimum temperature yesterday: 50 °F (at 12:30 am)
Average temperature yesterday: 54 °F

High & Low Weather Summary for the Past Weeks

 TemperatureHumidityPressure
High70 °F (Apr 13, 3:30 pm)100% (Apr 11, 9:30 pm)30.39 "Hg (Apr 11, 9:30 pm)
Low25 °F (Apr 21, 6:00 am)23% (Apr 20, 12:30 pm)29.77 "Hg (Apr 13, 4:00 pm)
Average48 °F70%30.03 "Hg
* Reported Apr 11 12:00 pm — Apr 26 12:30 pm, Kranj, Weather by CustomWeather, © 2017

Note: Actual official high and low records may vary slightly from our data, if they occured in-between our weather recording intervals... More about our weather records

Advertising

Kranj Weather History for the Previous 24 Hours

Scroll right to see more
 ConditionsComfort  
Time TempWeatherWind HumidityBarometerVisibility
12:30 pm
Wed, Apr 26
54 °FRain showers. Broken clouds.3 mph82%29.83 "HgN/A
12:00 pm55 °FSprinkles. Broken clouds.2 mph72%29.80 "HgN/A
11:30 am57 °FSprinkles. Broken clouds.2 mph67%29.80 "HgN/A
11:00 am57 °FBroken clouds.2 mph67%29.80 "HgN/A
10:30 am57 °FBroken clouds.6 mph63%29.80 "HgN/A
10:00 am57 °FBroken clouds.5 mph63%29.80 "HgN/A
9:30 am57 °FBroken clouds.3 mph63%29.80 "HgN/A
9:00 am55 °FBroken clouds.6 mph72%29.80 "HgN/A
8:30 am55 °FBroken clouds.5 mph72%29.80 "HgN/A
8:00 am55 °FBroken clouds.5 mph72%29.83 "HgN/A
7:30 am54 °FBroken clouds.2 mph77%29.83 "HgN/A
7:00 am52 °FBroken clouds.2 mph82%29.83 "HgN/A
6:30 am52 °FBroken clouds.2 mph82%29.83 "HgN/A
6:00 am54 °FBroken clouds.2 mph77%29.83 "HgN/A
5:30 am54 °FPartly cloudy.2 mph77%29.83 "HgN/A
5:00 am55 °FPartly cloudy.6 mph72%29.80 "HgN/A
4:30 am55 °FOvercast.6 mph72%29.80 "HgN/A
4:00 am55 °FOvercast.6 mph72%29.83 "HgN/A
3:00 am55 °FMostly cloudy.8 mph72%29.83 "HgN/A
2:30 am54 °FMostly cloudy.2 mph77%29.83 "HgN/A
2:00 am54 °FOvercast.1 mph77%29.83 "HgN/A
1:30 am54 °FOvercast.1 mph77%29.83 "HgN/A
1:00 am54 °FMostly cloudy.1 mph77%29.83 "HgN/A
12:30 am55 °FPartly cloudy.3 mph67%29.86 "HgN/A
12:00 am54 °FScattered showers. Partly cloudy.3 mph72%29.86 "HgN/A
11:30 pm
Tue, Apr 25
54 °FScattered showers. Partly cloudy.5 mph77%29.86 "HgN/A
11:00 pm54 °FScattered showers. Mostly cloudy.3 mph77%29.86 "HgN/A
10:30 pm54 °FMostly cloudy.2 mph77%29.86 "HgN/A
10:00 pm54 °FMostly cloudy.2 mph72%29.86 "HgN/A
9:00 pm54 °FScattered showers. Partly cloudy.5 mph77%29.86 "HgN/A
8:30 pm54 °FScattered showers. Partly cloudy.8 mph72%29.86 "HgN/A
8:00 pm55 °FScattered showers. Broken clouds.7 mph67%29.86 "HgN/A
7:30 pm54 °FScattered showers. Broken clouds.7 mph72%29.86 "HgN/A
7:00 pm55 °FBroken clouds.8 mph67%29.86 "HgN/A
6:30 pm55 °FPartly sunny.10 mph67%29.86 "HgN/A
6:00 pm55 °FPartly sunny.10 mph67%29.89 "HgN/A
5:30 pm57 °FLight rain. Partly sunny.13 mph63%29.89 "HgN/A
5:00 pm57 °FPartly sunny.5 mph67%29.89 "HgN/A
4:30 pm57 °FPartly sunny.7 mph67%29.89 "HgN/A
4:00 pm59 °FPartly sunny.10 mph63%29.89 "HgN/A
3:30 pm61 °FScattered showers. Broken clouds.7 mph63%29.89 "HgN/A
3:00 pm59 °FBroken clouds.9 mph63%29.89 "HgN/A
2:30 pm59 °FBroken clouds.8 mph63%29.89 "HgN/A
Weather by CustomWeather, © 2017

See weather overviewHow to use our weather pages